<?xml version="1.0" encoding="UTF-8"?>
<gpx
 version="1.0"
creator="GPSBabel - http://www.gpsbabel.org"
xmlns:xsi="http://www.w3.org/2001/XMLSchema-instance"
xmlns="http://www.topografix.com/GPX/1/0"
xsi:schemaLocation="http://www.topografix.com/GPX/1/0 http://www.topografix.com/GPX/1/0/gpx.xsd">
<time>2012-04-12T16:45:15Z</time>
<bounds minlat="42.948814520" minlon="-2.095873430" maxlat="43.134765700" maxlon="-1.892741190"/>
<trk>
<trkseg>
<trkpt lat="43.131237090" lon="-2.078604870">
  <ele>70.000000</ele>
<time>1989-12-30T23:59:59Z</time>
</trkpt>
<trkpt lat="43.131054030" lon="-2.077906320">
  <ele>72.000000</ele>
<time>1989-12-30T23:59:59Z</time>
</trkpt>
<trkpt lat="43.131271450" lon="-2.077659050">
  <ele>71.000000</ele>
<time>1989-12-30T23:59:59Z</time>
</trkpt>
<trkpt lat="43.132835510" lon="-2.077228890">
  <ele>70.000000</ele>
<time>1989-12-30T23:59:59Z</time>
</trkpt>
<trkpt lat="43.132843060" lon="-2.075874540">
  <ele>69.000000</ele>
<time>1989-12-30T23:59:59Z</time>
</trkpt>
<trkpt lat="43.133209350" lon="-2.074950190">
  <ele>69.000000</ele>
<time>1989-12-30T23:59:59Z</time>
</trkpt>
<trkpt lat="43.133750990" lon="-2.073872440">
  <ele>69.000000</ele>
<time>1989-12-30T23:59:59Z</time>
</trkpt>
<trkpt lat="43.134761840" lon="-2.073406070">
  <ele>69.000000</ele>
<time>1989-12-30T23:59:59Z</time>
</trkpt>
<trkpt lat="43.134765700" lon="-2.072848510">
  <ele>70.000000</ele>
<time>1989-12-30T23:59:59Z</time>
</trkpt>
<trkpt lat="43.133491650" lon="-2.070899380">
  <ele>72.000000</ele>
<time>1989-12-30T23:59:59Z</time>
</trkpt>
<trkpt lat="43.132076280" lon="-2.069926240">
  <ele>75.000000</ele>
<time>1989-12-30T23:59:59Z</time>
</trkpt>
<trkpt lat="43.131481330" lon="-2.068479690">
  <ele>76.000000</ele>
<time>1989-12-30T23:59:59Z</time>
</trkpt>
<trkpt lat="43.130058420" lon="-2.066662670">
  <ele>83.000000</ele>
<time>1989-12-30T23:59:59Z</time>
</trkpt>
<trkpt lat="43.128868190" lon="-2.063900830">
  <ele>112.000000</ele>
<time>1989-12-30T23:59:59Z</time>
</trkpt>
<trkpt lat="43.127307980" lon="-2.061378880">
  <ele>143.000000</ele>
<time>1989-12-30T23:59:59Z</time>
</trkpt>
<trkpt lat="43.126144580" lon="-2.061343510">
  <ele>155.000000</ele>
<time>1989-12-30T23:59:59Z</time>
</trkpt>
<trkpt lat="43.125576120" lon="-2.059496310">
  <ele>171.000000</ele>
<time>1989-12-30T23:59:59Z</time>
</trkpt>
<trkpt lat="43.124454620" lon="-2.058846370">
  <ele>187.000000</ele>
<time>1989-12-30T23:59:59Z</time>
</trkpt>
<trkpt lat="43.122783770" lon="-2.056303970">
  <ele>218.000000</ele>
<time>1989-12-30T23:59:59Z</time>
</trkpt>
<trkpt lat="43.120754340" lon="-2.054888100">
  <ele>241.000000</ele>
<time>1989-12-30T23:59:59Z</time>
</trkpt>
<trkpt lat="43.120567430" lon="-2.050545610">
  <ele>217.000000</ele>
<time>1989-12-30T23:59:59Z</time>
</trkpt>
<trkpt lat="43.120674210" lon="-2.049970270">
  <ele>214.000000</ele>
<time>1989-12-30T23:59:59Z</time>
</trkpt>
<trkpt lat="43.121723290" lon="-2.048820950">
  <ele>200.000000</ele>
<time>1989-12-30T23:59:59Z</time>
</trkpt>
<trkpt lat="43.121677530" lon="-2.047734650">
  <ele>196.000000</ele>
<time>1989-12-30T23:59:59Z</time>
</trkpt>
<trkpt lat="43.122226880" lon="-2.046708540">
  <ele>192.000000</ele>
<time>1989-12-30T23:59:59Z</time>
</trkpt>
<trkpt lat="43.121704180" lon="-2.045260310">
  <ele>194.000000</ele>
<time>1989-12-30T23:59:59Z</time>
</trkpt>
<trkpt lat="43.121002280" lon="-2.041501700">
  <ele>203.000000</ele>
<time>1989-12-30T23:59:59Z</time>
</trkpt>
<trkpt lat="43.121254070" lon="-2.040165630">
  <ele>215.000000</ele>
<time>1989-12-30T23:59:59Z</time>
</trkpt>
<trkpt lat="43.120830620" lon="-2.039373370">
  <ele>223.000000</ele>
<time>1989-12-30T23:59:59Z</time>
</trkpt>
<trkpt lat="43.120529200" lon="-2.036609020">
  <ele>246.000000</ele>
<time>1989-12-30T23:59:59Z</time>
</trkpt>
<trkpt lat="43.119976170" lon="-2.034753770">
  <ele>260.000000</ele>
<time>1989-12-30T23:59:59Z</time>
</trkpt>
<trkpt lat="43.119754880" lon="-2.034268450">
  <ele>263.000000</ele>
<time>1989-12-30T23:59:59Z</time>
</trkpt>
<trkpt lat="43.119617590" lon="-2.034532650">
  <ele>264.000000</ele>
<time>1989-12-30T23:59:59Z</time>
</trkpt>
<trkpt lat="43.119709120" lon="-2.038568200">
  <ele>298.000000</ele>
<time>1989-12-30T23:59:59Z</time>
</trkpt>
<trkpt lat="43.119552710" lon="-2.040000170">
  <ele>310.000000</ele>
<time>1989-12-30T23:59:59Z</time>
</trkpt>
<trkpt lat="43.119361940" lon="-2.040239220">
  <ele>314.000000</ele>
<time>1989-12-30T23:59:59Z</time>
</trkpt>
<trkpt lat="43.119079640" lon="-2.040060680">
  <ele>316.000000</ele>
<time>1989-12-30T23:59:59Z</time>
</trkpt>
<trkpt lat="43.117359170" lon="-2.035935110">
  <ele>357.000000</ele>
<time>1989-12-30T23:59:59Z</time>
</trkpt>
<trkpt lat="43.117191360" lon="-2.034025380">
  <ele>377.000000</ele>
<time>1989-12-30T23:59:59Z</time>
</trkpt>
<trkpt lat="43.116378820" lon="-2.032405830">
  <ele>393.000000</ele>
<time>1989-12-30T23:59:59Z</time>
</trkpt>
<trkpt lat="43.116661120" lon="-2.031086680">
  <ele>405.000000</ele>
<time>1989-12-30T23:59:59Z</time>
</trkpt>
<trkpt lat="43.115875400" lon="-2.030213790">
  <ele>418.000000</ele>
<time>1989-12-30T23:59:59Z</time>
</trkpt>
<trkpt lat="43.115654120" lon="-2.028637160">
  <ele>427.000000</ele>
<time>1989-12-30T23:59:59Z</time>
</trkpt>
<trkpt lat="43.115055150" lon="-2.027138140">
  <ele>445.000000</ele>
<time>1989-12-30T23:59:59Z</time>
</trkpt>
<trkpt lat="43.115127570" lon="-2.025795360">
  <ele>464.000000</ele>
<time>1989-12-30T23:59:59Z</time>
</trkpt>
<trkpt lat="43.114837720" lon="-2.025092280">
  <ele>474.000000</ele>
<time>1989-12-30T23:59:59Z</time>
</trkpt>
<trkpt lat="43.114669920" lon="-2.023083810">
  <ele>473.000000</ele>
<time>1989-12-30T23:59:59Z</time>
</trkpt>
<trkpt lat="43.115230670" lon="-2.022359110">
  <ele>469.000000</ele>
<time>1989-12-30T23:59:59Z</time>
</trkpt>
<trkpt lat="43.115127570" lon="-2.021008120">
  <ele>475.000000</ele>
<time>1989-12-30T23:59:59Z</time>
</trkpt>
<trkpt lat="43.114517370" lon="-2.019996750">
  <ele>485.000000</ele>
<time>1989-12-30T23:59:59Z</time>
</trkpt>
<trkpt lat="43.114048150" lon="-2.019827440">
  <ele>491.000000</ele>
<time>1989-12-30T23:59:59Z</time>
</trkpt>
<trkpt lat="43.113342390" lon="-2.018944160">
  <ele>506.000000</ele>
<time>1989-12-30T23:59:59Z</time>
</trkpt>
<trkpt lat="43.113140220" lon="-2.017802200">
  <ele>524.000000</ele>
<time>1989-12-30T23:59:59Z</time>
</trkpt>
<trkpt lat="43.110996300" lon="-2.016413160">
  <ele>567.000000</ele>
<time>1989-12-30T23:59:59Z</time>
</trkpt>
<trkpt lat="43.109935820" lon="-2.016053570">
  <ele>586.000000</ele>
<time>1989-12-30T23:59:59Z</time>
</trkpt>
<trkpt lat="43.109355960" lon="-2.015462150">
  <ele>599.000000</ele>
<time>1989-12-30T23:59:59Z</time>
</trkpt>
<trkpt lat="43.109611610" lon="-2.014817410">
  <ele>609.000000</ele>
<time>1989-12-30T23:59:59Z</time>
</trkpt>
<trkpt lat="43.109626860" lon="-2.014746670">
  <ele>610.000000</ele>
<time>1989-12-30T23:59:59Z</time>
</trkpt>
<trkpt lat="43.109188150" lon="-2.010060010">
  <ele>647.000000</ele>
<time>1989-12-30T23:59:59Z</time>
</trkpt>
<trkpt lat="43.109634410" lon="-2.007392380">
  <ele>651.000000</ele>
<time>1989-12-30T23:59:59Z</time>
</trkpt>
<trkpt lat="43.109512370" lon="-2.005079480">
  <ele>659.000000</ele>
<time>1989-12-30T23:59:59Z</time>
</trkpt>
<trkpt lat="43.109844290" lon="-2.003974410">
  <ele>663.000000</ele>
<time>1989-12-30T23:59:59Z</time>
</trkpt>
<trkpt lat="43.108654060" lon="-2.002818210">
  <ele>670.000000</ele>
<time>1989-12-30T23:59:59Z</time>
</trkpt>
<trkpt lat="43.108188700" lon="-1.999784630">
  <ele>671.000000</ele>
<time>1989-12-30T23:59:59Z</time>
</trkpt>
<trkpt lat="43.107620400" lon="-1.999168730">
  <ele>667.000000</ele>
<time>1989-12-30T23:59:59Z</time>
</trkpt>
<trkpt lat="43.106945160" lon="-2.000139690">
  <ele>661.000000</ele>
<time>1989-12-30T23:59:59Z</time>
</trkpt>
<trkpt lat="43.106475940" lon="-2.000109520">
  <ele>660.000000</ele>
<time>1989-12-30T23:59:59Z</time>
</trkpt>
<trkpt lat="43.105270450" lon="-1.998559370">
  <ele>650.000000</ele>
<time>1989-12-30T23:59:59Z</time>
</trkpt>
<trkpt lat="43.104339730" lon="-1.996590120">
  <ele>659.000000</ele>
<time>1989-12-30T23:59:59Z</time>
</trkpt>
<trkpt lat="43.102527730" lon="-1.994991020">
  <ele>677.000000</ele>
<time>1989-12-30T23:59:59Z</time>
</trkpt>
<trkpt lat="43.101795320" lon="-1.995126810">
  <ele>678.000000</ele>
<time>1989-12-30T23:59:59Z</time>
</trkpt>
<trkpt lat="43.101318390" lon="-1.995589490">
  <ele>685.000000</ele>
<time>1989-12-30T23:59:59Z</time>
</trkpt>
<trkpt lat="43.099556010" lon="-1.995099820">
  <ele>690.000000</ele>
<time>1989-12-30T23:59:59Z</time>
</trkpt>
<trkpt lat="43.097759260" lon="-1.995221690">
  <ele>704.000000</ele>
<time>1989-12-30T23:59:59Z</time>
</trkpt>
<trkpt lat="43.095504870" lon="-1.993581520">
  <ele>708.000000</ele>
<time>1989-12-30T23:59:59Z</time>
</trkpt>
<trkpt lat="43.093624130" lon="-1.988614910">
  <ele>718.000000</ele>
<time>1989-12-30T23:59:59Z</time>
</trkpt>
<trkpt lat="43.093288520" lon="-1.985820720">
  <ele>704.000000</ele>
<time>1989-12-30T23:59:59Z</time>
</trkpt>
<trkpt lat="43.093792110" lon="-1.983115210">
  <ele>704.000000</ele>
<time>1989-12-30T23:59:59Z</time>
</trkpt>
<trkpt lat="43.093566970" lon="-1.981661790">
  <ele>695.000000</ele>
<time>1989-12-30T23:59:59Z</time>
</trkpt>
<trkpt lat="43.093082500" lon="-1.981402110">
  <ele>695.000000</ele>
<time>1989-12-30T23:59:59Z</time>
</trkpt>
<trkpt lat="43.091007300" lon="-1.978622340">
  <ele>726.000000</ele>
<time>1989-12-30T23:59:59Z</time>
</trkpt>
<trkpt lat="43.090324510" lon="-1.978130490">
  <ele>732.000000</ele>
<time>1989-12-30T23:59:59Z</time>
</trkpt>
<trkpt lat="43.089824780" lon="-1.976978310">
  <ele>744.000000</ele>
<time>1989-12-30T23:59:59Z</time>
</trkpt>
<trkpt lat="43.089527230" lon="-1.974353270">
  <ele>761.000000</ele>
<time>1989-12-30T23:59:59Z</time>
</trkpt>
<trkpt lat="43.088851980" lon="-1.972600610">
  <ele>778.000000</ele>
<time>1989-12-30T23:59:59Z</time>
</trkpt>
<trkpt lat="43.087005620" lon="-1.971989570">
  <ele>800.000000</ele>
<time>1989-12-30T23:59:59Z</time>
</trkpt>
<trkpt lat="43.086109250" lon="-1.970542350">
  <ele>817.000000</ele>
<time>1989-12-30T23:59:59Z</time>
</trkpt>
<trkpt lat="43.086250410" lon="-1.969695110">
  <ele>827.000000</ele>
<time>1989-12-30T23:59:59Z</time>
</trkpt>
<trkpt lat="43.085666690" lon="-1.969992670">
  <ele>831.000000</ele>
<time>1989-12-30T23:59:59Z</time>
</trkpt>
<trkpt lat="43.085148020" lon="-1.970975030">
  <ele>844.000000</ele>
<time>1989-12-30T23:59:59Z</time>
</trkpt>
<trkpt lat="43.084190470" lon="-1.971175520">
  <ele>852.000000</ele>
<time>1989-12-30T23:59:59Z</time>
</trkpt>
<trkpt lat="43.083461910" lon="-1.972522330">
  <ele>849.000000</ele>
<time>1989-12-30T23:59:59Z</time>
</trkpt>
<trkpt lat="43.082729500" lon="-1.972345300">
  <ele>841.000000</ele>
<time>1989-12-30T23:59:59Z</time>
</trkpt>
<trkpt lat="43.082538730" lon="-1.972677730">
  <ele>838.000000</ele>
<time>1989-12-30T23:59:59Z</time>
</trkpt>
<trkpt lat="43.082263970" lon="-1.972323000">
  <ele>832.000000</ele>
<time>1989-12-30T23:59:59Z</time>
</trkpt>
<trkpt lat="43.081359900" lon="-1.972409840">
  <ele>812.000000</ele>
<time>1989-12-30T23:59:59Z</time>
</trkpt>
<trkpt lat="43.079967670" lon="-1.973257750">
  <ele>807.000000</ele>
<time>1989-12-30T23:59:59Z</time>
</trkpt>
<trkpt lat="43.079181780" lon="-1.974249500">
  <ele>795.000000</ele>
<time>1989-12-30T23:59:59Z</time>
</trkpt>
<trkpt lat="43.078525640" lon="-1.974101140">
  <ele>788.000000</ele>
<time>1989-12-30T23:59:59Z</time>
</trkpt>
<trkpt lat="43.078170920" lon="-1.973436460">
  <ele>782.000000</ele>
<time>1989-12-30T23:59:59Z</time>
</trkpt>
<trkpt lat="43.076488510" lon="-1.972172130">
  <ele>769.000000</ele>
<time>1989-12-30T23:59:59Z</time>
</trkpt>
<trkpt lat="43.076595460" lon="-1.970269100">
  <ele>739.000000</ele>
<time>1989-12-30T23:59:59Z</time>
</trkpt>
<trkpt lat="43.076210060" lon="-1.969502660">
  <ele>728.000000</ele>
<time>1989-12-30T23:59:59Z</time>
</trkpt>
<trkpt lat="43.075420480" lon="-1.969476010">
  <ele>730.000000</ele>
<time>1989-12-30T23:59:59Z</time>
</trkpt>
<trkpt lat="43.075431880" lon="-1.969050710">
  <ele>725.000000</ele>
<time>1989-12-30T23:59:59Z</time>
</trkpt>
<trkpt lat="43.074569720" lon="-1.970581750">
  <ele>709.000000</ele>
<time>1989-12-30T23:59:59Z</time>
</trkpt>
<trkpt lat="43.073104900" lon="-1.971976160">
  <ele>672.000000</ele>
<time>1989-12-30T23:59:59Z</time>
</trkpt>
<trkpt lat="43.072307610" lon="-1.972823740">
  <ele>688.000000</ele>
<time>1989-12-30T23:59:59Z</time>
</trkpt>
<trkpt lat="43.071819450" lon="-1.973324810">
  <ele>720.000000</ele>
<time>1989-12-30T23:59:59Z</time>
</trkpt>
<trkpt lat="43.071109840" lon="-1.972672030">
  <ele>725.000000</ele>
<time>1989-12-30T23:59:59Z</time>
</trkpt>
<trkpt lat="43.070049360" lon="-1.972813010">
  <ele>744.000000</ele>
<time>1989-12-30T23:59:59Z</time>
</trkpt>
<trkpt lat="43.069301690" lon="-1.972009020">
  <ele>756.000000</ele>
<time>1989-12-30T23:59:59Z</time>
</trkpt>
<trkpt lat="43.068080950" lon="-1.971935420">
  <ele>775.000000</ele>
<time>1989-12-30T23:59:59Z</time>
</trkpt>
<trkpt lat="43.067855980" lon="-1.970998830">
  <ele>783.000000</ele>
<time>1989-12-30T23:59:59Z</time>
</trkpt>
<trkpt lat="43.067287520" lon="-1.970652490">
  <ele>791.000000</ele>
<time>1989-12-30T23:59:59Z</time>
</trkpt>
<trkpt lat="43.067035730" lon="-1.969734340">
  <ele>794.000000</ele>
<time>1989-12-30T23:59:59Z</time>
</trkpt>
<trkpt lat="43.066379600" lon="-1.968964040">
  <ele>796.000000</ele>
<time>1989-12-30T23:59:59Z</time>
</trkpt>
<trkpt lat="43.065395390" lon="-1.968856080">
  <ele>796.000000</ele>
<time>1989-12-30T23:59:59Z</time>
</trkpt>
<trkpt lat="43.064472210" lon="-1.969379280">
  <ele>797.000000</ele>
<time>1989-12-30T23:59:59Z</time>
</trkpt>
<trkpt lat="43.063911460" lon="-1.969305020">
  <ele>790.000000</ele>
<time>1989-12-30T23:59:59Z</time>
</trkpt>
<trkpt lat="43.062744200" lon="-1.967680770">
  <ele>752.000000</ele>
<time>1989-12-30T23:59:59Z</time>
</trkpt>
<trkpt lat="43.062328450" lon="-1.966392140">
  <ele>741.000000</ele>
<time>1989-12-30T23:59:59Z</time>
</trkpt>
<trkpt lat="43.060669000" lon="-1.964572590">
  <ele>741.000000</ele>
<time>1989-12-30T23:59:59Z</time>
</trkpt>
<trkpt lat="43.060165420" lon="-1.963431820">
  <ele>739.000000</ele>
<time>1989-12-30T23:59:59Z</time>
</trkpt>
<trkpt lat="43.059101250" lon="-1.962335800">
  <ele>739.000000</ele>
<time>1989-12-30T23:59:59Z</time>
</trkpt>
<trkpt lat="43.057712710" lon="-1.960172260">
  <ele>739.000000</ele>
<time>1989-12-30T23:59:59Z</time>
</trkpt>
<trkpt lat="43.057396040" lon="-1.960057930">
  <ele>736.000000</ele>
<time>1989-12-30T23:59:59Z</time>
</trkpt>
<trkpt lat="43.056129530" lon="-1.961157300">
  <ele>713.000000</ele>
<time>1989-12-30T23:59:59Z</time>
</trkpt>
<trkpt lat="43.055542130" lon="-1.961107180">
  <ele>711.000000</ele>
<time>1989-12-30T23:59:59Z</time>
</trkpt>
<trkpt lat="43.055496360" lon="-1.959420070">
  <ele>687.000000</ele>
<time>1989-12-30T23:59:59Z</time>
</trkpt>
<trkpt lat="43.054977530" lon="-1.957386290">
  <ele>689.000000</ele>
<time>1989-12-30T23:59:59Z</time>
</trkpt>
<trkpt lat="43.054252660" lon="-1.956136710">
  <ele>686.000000</ele>
<time>1989-12-30T23:59:59Z</time>
</trkpt>
<trkpt lat="43.053718730" lon="-1.955724150">
  <ele>683.000000</ele>
<time>1989-12-30T23:59:59Z</time>
</trkpt>
<trkpt lat="43.053581270" lon="-1.955954990">
  <ele>682.000000</ele>
<time>1989-12-30T23:59:59Z</time>
</trkpt>
<trkpt lat="43.053577580" lon="-1.955613340">
  <ele>680.000000</ele>
<time>1989-12-30T23:59:59Z</time>
</trkpt>
<trkpt lat="43.052597060" lon="-1.954709110">
  <ele>673.000000</ele>
<time>1989-12-30T23:59:59Z</time>
</trkpt>
<trkpt lat="43.052066830" lon="-1.954660660">
  <ele>672.000000</ele>
<time>1989-12-30T23:59:59Z</time>
</trkpt>
<trkpt lat="43.051971440" lon="-1.954725370">
  <ele>674.000000</ele>
<time>1989-12-30T23:59:59Z</time>
</trkpt>
<trkpt lat="43.051536590" lon="-1.954859310">
  <ele>684.000000</ele>
<time>1989-12-30T23:59:59Z</time>
</trkpt>
<trkpt lat="43.050495220" lon="-1.953831520">
  <ele>687.000000</ele>
<time>1989-12-30T23:59:59Z</time>
</trkpt>
<trkpt lat="43.050457160" lon="-1.953462210">
  <ele>688.000000</ele>
<time>1989-12-30T23:59:59Z</time>
</trkpt>
<trkpt lat="43.050159610" lon="-1.953674610">
  <ele>685.000000</ele>
<time>1989-12-30T23:59:59Z</time>
</trkpt>
<trkpt lat="43.049480510" lon="-1.953512500">
  <ele>680.000000</ele>
<time>1989-12-30T23:59:59Z</time>
</trkpt>
<trkpt lat="43.049347070" lon="-1.953350570">
  <ele>681.000000</ele>
<time>1989-12-30T23:59:59Z</time>
</trkpt>
<trkpt lat="43.048847340" lon="-1.953157280">
  <ele>673.000000</ele>
<time>1989-12-30T23:59:59Z</time>
</trkpt>
<trkpt lat="43.044830390" lon="-1.952154970">
  <ele>665.000000</ele>
<time>1989-12-30T23:59:59Z</time>
</trkpt>
<trkpt lat="43.042904060" lon="-1.952047010">
  <ele>675.000000</ele>
<time>1989-12-30T23:59:59Z</time>
</trkpt>
<trkpt lat="43.041164480" lon="-1.951148470">
  <ele>673.000000</ele>
<time>1989-12-30T23:59:59Z</time>
</trkpt>
<trkpt lat="43.038150850" lon="-1.950343810">
  <ele>648.000000</ele>
<time>1989-12-30T23:59:59Z</time>
</trkpt>
<trkpt lat="43.037197160" lon="-1.948926430">
  <ele>638.000000</ele>
<time>1989-12-30T23:59:59Z</time>
</trkpt>
<trkpt lat="43.035774250" lon="-1.948177930">
  <ele>601.000000</ele>
<time>1989-12-30T23:59:59Z</time>
</trkpt>
<trkpt lat="43.034267520" lon="-1.947620360">
  <ele>593.000000</ele>
<time>1989-12-30T23:59:59Z</time>
</trkpt>
<trkpt lat="43.032947700" lon="-1.945579870">
  <ele>569.000000</ele>
<time>1989-12-30T23:59:59Z</time>
</trkpt>
<trkpt lat="43.033920340" lon="-1.943940040">
  <ele>555.000000</ele>
<time>1989-12-30T23:59:59Z</time>
</trkpt>
<trkpt lat="43.033928050" lon="-1.943366380">
  <ele>556.000000</ele>
<time>1989-12-30T23:59:59Z</time>
</trkpt>
<trkpt lat="43.033332940" lon="-1.942668500">
  <ele>564.000000</ele>
<time>1989-12-30T23:59:59Z</time>
</trkpt>
<trkpt lat="43.033042920" lon="-1.940142870">
  <ele>554.000000</ele>
<time>1989-12-30T23:59:59Z</time>
</trkpt>
<trkpt lat="43.032024520" lon="-1.938718780">
  <ele>565.000000</ele>
<time>1989-12-30T23:59:59Z</time>
</trkpt>
<trkpt lat="43.032283860" lon="-1.936444270">
  <ele>555.000000</ele>
<time>1989-12-30T23:59:59Z</time>
</trkpt>
<trkpt lat="43.031158500" lon="-1.935654020">
  <ele>552.000000</ele>
<time>1989-12-30T23:59:59Z</time>
</trkpt>
<trkpt lat="43.029377010" lon="-1.932330930">
  <ele>532.000000</ele>
<time>1989-12-30T23:59:59Z</time>
</trkpt>
<trkpt lat="43.028396670" lon="-1.931702790">
  <ele>530.000000</ele>
<time>1989-12-30T23:59:59Z</time>
</trkpt>
<trkpt lat="43.027503990" lon="-1.930605770">
  <ele>524.000000</ele>
<time>1989-12-30T23:59:59Z</time>
</trkpt>
<trkpt lat="43.026252910" lon="-1.928987890">
  <ele>529.000000</ele>
<time>1989-12-30T23:59:59Z</time>
</trkpt>
<trkpt lat="43.025390750" lon="-1.927257030">
  <ele>536.000000</ele>
<time>1989-12-30T23:59:59Z</time>
</trkpt>
<trkpt lat="43.024421800" lon="-1.926751100">
  <ele>539.000000</ele>
<time>1989-12-30T23:59:59Z</time>
</trkpt>
<trkpt lat="43.022831080" lon="-1.923430520">
  <ele>578.000000</ele>
<time>1989-12-30T23:59:59Z</time>
</trkpt>
<trkpt lat="43.022186350" lon="-1.921391210">
  <ele>595.000000</ele>
<time>1989-12-30T23:59:59Z</time>
</trkpt>
<trkpt lat="43.020748180" lon="-1.919557920">
  <ele>609.000000</ele>
<time>1989-12-30T23:59:59Z</time>
</trkpt>
<trkpt lat="43.018390690" lon="-1.914639580">
  <ele>625.000000</ele>
<time>1989-12-30T23:59:59Z</time>
</trkpt>
<trkpt lat="43.017826080" lon="-1.912141780">
  <ele>613.000000</ele>
<time>1989-12-30T23:59:59Z</time>
</trkpt>
<trkpt lat="43.017414190" lon="-1.906907110">
  <ele>596.000000</ele>
<time>1989-12-30T23:59:59Z</time>
</trkpt>
<trkpt lat="43.016765600" lon="-1.904129350">
  <ele>583.000000</ele>
<time>1989-12-30T23:59:59Z</time>
</trkpt>
<trkpt lat="43.017700350" lon="-1.902831830">
  <ele>589.000000</ele>
<time>1989-12-30T23:59:59Z</time>
</trkpt>
<trkpt lat="43.018158000" lon="-1.900843140">
  <ele>606.000000</ele>
<time>1989-12-30T23:59:59Z</time>
</trkpt>
<trkpt lat="43.018955290" lon="-1.899430450">
  <ele>615.000000</ele>
<time>1989-12-30T23:59:59Z</time>
</trkpt>
<trkpt lat="43.018688240" lon="-1.898872390">
  <ele>619.000000</ele>
<time>1989-12-30T23:59:59Z</time>
</trkpt>
<trkpt lat="43.016517670" lon="-1.899559700">
  <ele>614.000000</ele>
<time>1989-12-30T23:59:59Z</time>
</trkpt>
<trkpt lat="43.014869780" lon="-1.900589840">
  <ele>609.000000</ele>
<time>1989-12-30T23:59:59Z</time>
</trkpt>
<trkpt lat="43.011325910" lon="-1.899871340">
  <ele>601.000000</ele>
<time>1989-12-30T23:59:59Z</time>
</trkpt>
<trkpt lat="43.010669780" lon="-1.898677090">
  <ele>593.000000</ele>
<time>1989-12-30T23:59:59Z</time>
</trkpt>
<trkpt lat="43.010410440" lon="-1.897140010">
  <ele>599.000000</ele>
<time>1989-12-30T23:59:59Z</time>
</trkpt>
<trkpt lat="43.011211420" lon="-1.894023620">
  <ele>590.000000</ele>
<time>1989-12-30T23:59:59Z</time>
</trkpt>
<trkpt lat="43.010421840" lon="-1.892908660">
  <ele>588.000000</ele>
<time>1989-12-30T23:59:59Z</time>
</trkpt>
<trkpt lat="43.008403820" lon="-1.892741190">
  <ele>587.000000</ele>
<time>1989-12-30T23:59:59Z</time>
</trkpt>
<trkpt lat="43.007507450" lon="-1.894484130">
  <ele>567.000000</ele>
<time>1989-12-30T23:59:59Z</time>
</trkpt>
<trkpt lat="43.006881830" lon="-1.895072030">
  <ele>568.000000</ele>
<time>1989-12-30T23:59:59Z</time>
</trkpt>
<trkpt lat="43.005889910" lon="-1.895267500">
  <ele>568.000000</ele>
<time>1989-12-30T23:59:59Z</time>
</trkpt>
<trkpt lat="43.005554300" lon="-1.895622560">
  <ele>564.000000</ele>
<time>1989-12-30T23:59:59Z</time>
</trkpt>
<trkpt lat="43.004902020" lon="-1.895568580">
  <ele>565.000000</ele>
<time>1989-12-30T23:59:59Z</time>
</trkpt>
<trkpt lat="43.004524340" lon="-1.896320430">
  <ele>565.000000</ele>
<time>1989-12-30T23:59:59Z</time>
</trkpt>
<trkpt lat="43.003570640" lon="-1.896616650">
  <ele>562.000000</ele>
<time>1989-12-30T23:59:59Z</time>
</trkpt>
<trkpt lat="43.001823520" lon="-1.898136460">
  <ele>556.000000</ele>
<time>1989-12-30T23:59:59Z</time>
</trkpt>
<trkpt lat="42.999919990" lon="-1.897383930">
  <ele>572.000000</ele>
<time>1989-12-30T23:59:59Z</time>
</trkpt>
<trkpt lat="42.999252450" lon="-1.896229240">
  <ele>566.000000</ele>
<time>1989-12-30T23:59:59Z</time>
</trkpt>
<trkpt lat="42.997673140" lon="-1.895842500">
  <ele>556.000000</ele>
<time>1989-12-30T23:59:59Z</time>
</trkpt>
<trkpt lat="42.997657880" lon="-1.894954850">
  <ele>557.000000</ele>
<time>1989-12-30T23:59:59Z</time>
</trkpt>
<trkpt lat="42.996738550" lon="-1.896266790">
  <ele>558.000000</ele>
<time>1989-12-30T23:59:59Z</time>
</trkpt>
<trkpt lat="42.995979320" lon="-1.896049360">
  <ele>557.000000</ele>
<time>1989-12-30T23:59:59Z</time>
</trkpt>
<trkpt lat="42.995166950" lon="-1.896515230">
  <ele>556.000000</ele>
<time>1989-12-30T23:59:59Z</time>
</trkpt>
<trkpt lat="42.994148380" lon="-1.897957750">
  <ele>566.000000</ele>
<time>1989-12-30T23:59:59Z</time>
</trkpt>
<trkpt lat="42.992485070" lon="-1.899144800">
  <ele>577.000000</ele>
<time>1989-12-30T23:59:59Z</time>
</trkpt>
<trkpt lat="42.991928180" lon="-1.900592190">
  <ele>583.000000</ele>
<time>1989-12-30T23:59:59Z</time>
</trkpt>
<trkpt lat="42.991153860" lon="-1.901269780">
  <ele>585.000000</ele>
<time>1989-12-30T23:59:59Z</time>
</trkpt>
<trkpt lat="42.990951690" lon="-1.901847290">
  <ele>588.000000</ele>
<time>1989-12-30T23:59:59Z</time>
</trkpt>
<trkpt lat="42.991581000" lon="-1.903137770">
  <ele>593.000000</ele>
<time>1989-12-30T23:59:59Z</time>
</trkpt>
<trkpt lat="42.991462820" lon="-1.903443880">
  <ele>594.000000</ele>
<time>1989-12-30T23:59:59Z</time>
</trkpt>
<trkpt lat="42.990699890" lon="-1.903932540">
  <ele>600.000000</ele>
<time>1989-12-30T23:59:59Z</time>
</trkpt>
<trkpt lat="42.989894900" lon="-1.903349160">
  <ele>607.000000</ele>
<time>1989-12-30T23:59:59Z</time>
</trkpt>
<trkpt lat="42.989448640" lon="-1.903386710">
  <ele>609.000000</ele>
<time>1989-12-30T23:59:59Z</time>
</trkpt>
<trkpt lat="42.989143380" lon="-1.903795580">
  <ele>611.000000</ele>
<time>1989-12-30T23:59:59Z</time>
</trkpt>
<trkpt lat="42.989101470" lon="-1.904989330">
  <ele>615.000000</ele>
<time>1989-12-30T23:59:59Z</time>
</trkpt>
<trkpt lat="42.984367530" lon="-1.906377540">
  <ele>623.000000</ele>
<time>1989-12-30T23:59:59Z</time>
</trkpt>
<trkpt lat="42.983413840" lon="-1.908648200">
  <ele>618.000000</ele>
<time>1989-12-30T23:59:59Z</time>
</trkpt>
<trkpt lat="42.982853090" lon="-1.909053880">
  <ele>614.000000</ele>
<time>1989-12-30T23:59:59Z</time>
</trkpt>
<trkpt lat="42.981468230" lon="-1.909372560">
  <ele>625.000000</ele>
<time>1989-12-30T23:59:59Z</time>
</trkpt>
<trkpt lat="42.980442120" lon="-1.910106480">
  <ele>638.000000</ele>
<time>1989-12-30T23:59:59Z</time>
</trkpt>
<trkpt lat="42.980419320" lon="-1.912974440">
  <ele>644.000000</ele>
<time>1989-12-30T23:59:59Z</time>
</trkpt>
<trkpt lat="42.979770730" lon="-1.915155410">
  <ele>643.000000</ele>
<time>1989-12-30T23:59:59Z</time>
</trkpt>
<trkpt lat="42.979671490" lon="-1.917414500">
  <ele>647.000000</ele>
<time>1989-12-30T23:59:59Z</time>
</trkpt>
<trkpt lat="42.979064970" lon="-1.919129770">
  <ele>653.000000</ele>
<time>1989-12-30T23:59:59Z</time>
</trkpt>
<trkpt lat="42.978191410" lon="-1.919854970">
  <ele>658.000000</ele>
<time>1989-12-30T23:59:59Z</time>
</trkpt>
<trkpt lat="42.977706940" lon="-1.919926390">
  <ele>664.000000</ele>
<time>1989-12-30T23:59:59Z</time>
</trkpt>
<trkpt lat="42.976966980" lon="-1.919385080">
  <ele>671.000000</ele>
<time>1989-12-30T23:59:59Z</time>
</trkpt>
<trkpt lat="42.976413780" lon="-1.919616090">
  <ele>682.000000</ele>
<time>1989-12-30T23:59:59Z</time>
</trkpt>
<trkpt lat="42.975624200" lon="-1.918867080">
  <ele>695.000000</ele>
<time>1989-12-30T23:59:59Z</time>
</trkpt>
<trkpt lat="42.974907050" lon="-1.918697100">
  <ele>701.000000</ele>
<time>1989-12-30T23:59:59Z</time>
</trkpt>
<trkpt lat="42.974556010" lon="-1.919610220">
  <ele>710.000000</ele>
<time>1989-12-30T23:59:59Z</time>
</trkpt>
<trkpt lat="42.972881480" lon="-1.919602010">
  <ele>746.000000</ele>
<time>1989-12-30T23:59:59Z</time>
</trkpt>
<trkpt lat="42.972362640" lon="-1.920241210">
  <ele>755.000000</ele>
<time>1989-12-30T23:59:59Z</time>
</trkpt>
<trkpt lat="42.971576750" lon="-1.920418740">
  <ele>765.000000</ele>
<time>1989-12-30T23:59:59Z</time>
</trkpt>
<trkpt lat="42.970405630" lon="-1.921789350">
  <ele>784.000000</ele>
<time>1989-12-30T23:59:59Z</time>
</trkpt>
<trkpt lat="42.969726700" lon="-1.921936370">
  <ele>786.000000</ele>
<time>1989-12-30T23:59:59Z</time>
</trkpt>
<trkpt lat="42.969421430" lon="-1.921721290">
  <ele>787.000000</ele>
<time>1989-12-30T23:59:59Z</time>
</trkpt>
<trkpt lat="42.968582230" lon="-1.922585960">
  <ele>791.000000</ele>
<time>1989-12-30T23:59:59Z</time>
</trkpt>
<trkpt lat="42.967682020" lon="-1.922248010">
  <ele>795.000000</ele>
<time>1989-12-30T23:59:59Z</time>
</trkpt>
<trkpt lat="42.966350630" lon="-1.922384970">
  <ele>800.000000</ele>
<time>1989-12-30T23:59:59Z</time>
</trkpt>
<trkpt lat="42.965366430" lon="-1.923165320">
  <ele>806.000000</ele>
<time>1989-12-30T23:59:59Z</time>
</trkpt>
<trkpt lat="42.964660670" lon="-1.924952180">
  <ele>826.000000</ele>
<time>1989-12-30T23:59:59Z</time>
</trkpt>
<trkpt lat="42.964267730" lon="-1.924784540">
  <ele>837.000000</ele>
<time>1989-12-30T23:59:59Z</time>
</trkpt>
<trkpt lat="42.963150090" lon="-1.925557850">
  <ele>865.000000</ele>
<time>1989-12-30T23:59:59Z</time>
</trkpt>
<trkpt lat="42.961608990" lon="-1.927425510">
  <ele>907.000000</ele>
<time>1989-12-30T23:59:59Z</time>
</trkpt>
<trkpt lat="42.960865180" lon="-1.927575540">
  <ele>932.000000</ele>
<time>1989-12-30T23:59:59Z</time>
</trkpt>
<trkpt lat="42.960201330" lon="-1.928763930">
  <ele>951.000000</ele>
<time>1989-12-30T23:59:59Z</time>
</trkpt>
<trkpt lat="42.960014420" lon="-1.928589250">
  <ele>956.000000</ele>
<time>1989-12-30T23:59:59Z</time>
</trkpt>
<trkpt lat="42.959362140" lon="-1.928808690">
  <ele>956.000000</ele>
<time>1989-12-30T23:59:59Z</time>
</trkpt>
<trkpt lat="42.958828040" lon="-1.928483640">
  <ele>954.000000</ele>
<time>1989-12-30T23:59:59Z</time>
</trkpt>
<trkpt lat="42.957721800" lon="-1.929516960">
  <ele>957.000000</ele>
<time>1989-12-30T23:59:59Z</time>
</trkpt>
<trkpt lat="42.957016040" lon="-1.929221750">
  <ele>958.000000</ele>
<time>1989-12-30T23:59:59Z</time>
</trkpt>
<trkpt lat="42.956695690" lon="-1.928732080">
  <ele>964.000000</ele>
<time>1989-12-30T23:59:59Z</time>
</trkpt>
<trkpt lat="42.956157740" lon="-1.928534940">
  <ele>961.000000</ele>
<time>1989-12-30T23:59:59Z</time>
</trkpt>
<trkpt lat="42.955661860" lon="-1.928704920">
  <ele>964.000000</ele>
<time>1989-12-30T23:59:59Z</time>
</trkpt>
<trkpt lat="42.954952250" lon="-1.928102930">
  <ele>954.000000</ele>
<time>1989-12-30T23:59:59Z</time>
</trkpt>
<trkpt lat="42.953666800" lon="-1.928837020">
  <ele>950.000000</ele>
<time>1989-12-30T23:59:59Z</time>
</trkpt>
<trkpt lat="42.953338730" lon="-1.928187090">
  <ele>943.000000</ele>
<time>1989-12-30T23:59:59Z</time>
</trkpt>
<trkpt lat="42.952880920" lon="-1.928214410">
  <ele>936.000000</ele>
<time>1989-12-30T23:59:59Z</time>
</trkpt>
<trkpt lat="42.953113600" lon="-1.932421120">
  <ele>941.000000</ele>
<time>1989-12-30T23:59:59Z</time>
</trkpt>
<trkpt lat="42.952785530" lon="-1.935958120">
  <ele>946.000000</ele>
<time>1989-12-30T23:59:59Z</time>
</trkpt>
<trkpt lat="42.953434120" lon="-1.936615090">
  <ele>945.000000</ele>
<time>1989-12-30T23:59:59Z</time>
</trkpt>
<trkpt lat="42.953170930" lon="-1.937660480">
  <ele>952.000000</ele>
<time>1989-12-30T23:59:59Z</time>
</trkpt>
<trkpt lat="42.952530050" lon="-1.937845550">
  <ele>965.000000</ele>
<time>1989-12-30T23:59:59Z</time>
</trkpt>
<trkpt lat="42.952232490" lon="-1.938294660">
  <ele>970.000000</ele>
<time>1989-12-30T23:59:59Z</time>
</trkpt>
<trkpt lat="42.952198130" lon="-1.939612790">
  <ele>987.000000</ele>
<time>1989-12-30T23:59:59Z</time>
</trkpt>
<trkpt lat="42.951580210" lon="-1.941456650">
  <ele>1019.000000</ele>
<time>1989-12-30T23:59:59Z</time>
</trkpt>
<trkpt lat="42.951461860" lon="-1.942859780">
  <ele>1043.000000</ele>
<time>1989-12-30T23:59:59Z</time>
</trkpt>
<trkpt lat="42.951847090" lon="-1.943613640">
  <ele>1057.000000</ele>
<time>1989-12-30T23:59:59Z</time>
</trkpt>
<trkpt lat="42.951889170" lon="-1.945295890">
  <ele>1079.000000</ele>
<time>1989-12-30T23:59:59Z</time>
</trkpt>
<trkpt lat="42.951492370" lon="-1.946810840">
  <ele>1091.000000</ele>
<time>1989-12-30T23:59:59Z</time>
</trkpt>
<trkpt lat="42.951217780" lon="-1.949850120">
  <ele>1090.000000</ele>
<time>1989-12-30T23:59:59Z</time>
</trkpt>
<trkpt lat="42.951450460" lon="-1.955159050">
  <ele>1139.000000</ele>
<time>1989-12-30T23:59:59Z</time>
</trkpt>
<trkpt lat="42.951023150" lon="-1.956141240">
  <ele>1153.000000</ele>
<time>1989-12-30T23:59:59Z</time>
</trkpt>
<trkpt lat="42.950870600" lon="-1.958059850">
  <ele>1168.000000</ele>
<time>1989-12-30T23:59:59Z</time>
</trkpt>
<trkpt lat="42.950481510" lon="-1.959149000">
  <ele>1160.000000</ele>
<time>1989-12-30T23:59:59Z</time>
</trkpt>
<trkpt lat="42.950138190" lon="-1.961672290">
  <ele>1174.000000</ele>
<time>1989-12-30T23:59:59Z</time>
</trkpt>
<trkpt lat="42.949344760" lon="-1.964608130">
  <ele>1170.000000</ele>
<time>1989-12-30T23:59:59Z</time>
</trkpt>
<trkpt lat="42.948864140" lon="-1.966468080">
  <ele>1199.000000</ele>
<time>1989-12-30T23:59:59Z</time>
</trkpt>
<trkpt lat="42.948814520" lon="-1.966925730">
  <ele>1197.000000</ele>
<time>1989-12-30T23:59:59Z</time>
</trkpt>
<trkpt lat="42.950744700" lon="-1.973366220">
  <ele>1170.000000</ele>
<time>1989-12-30T23:59:59Z</time>
</trkpt>
<trkpt lat="42.950466260" lon="-1.975307970">
  <ele>1157.000000</ele>
<time>1989-12-30T23:59:59Z</time>
</trkpt>
<trkpt lat="42.950634060" lon="-1.977110580">
  <ele>1146.000000</ele>
<time>1989-12-30T23:59:59Z</time>
</trkpt>
<trkpt lat="42.951484830" lon="-1.979288530">
  <ele>1132.000000</ele>
<time>1989-12-30T23:59:59Z</time>
</trkpt>
<trkpt lat="42.952236180" lon="-1.980048940">
  <ele>1126.000000</ele>
<time>1989-12-30T23:59:59Z</time>
</trkpt>
<trkpt lat="42.953144110" lon="-1.980258150">
  <ele>1120.000000</ele>
<time>1989-12-30T23:59:59Z</time>
</trkpt>
<trkpt lat="42.953846010" lon="-1.981164070">
  <ele>1110.000000</ele>
<time>1989-12-30T23:59:59Z</time>
</trkpt>
<trkpt lat="42.953991010" lon="-1.983050000">
  <ele>1097.000000</ele>
<time>1989-12-30T23:59:59Z</time>
</trkpt>
<trkpt lat="42.953701170" lon="-1.985593070">
  <ele>1084.000000</ele>
<time>1989-12-30T23:59:59Z</time>
</trkpt>
<trkpt lat="42.953872830" lon="-1.986527140">
  <ele>1088.000000</ele>
<time>1989-12-30T23:59:59Z</time>
</trkpt>
<trkpt lat="42.954750080" lon="-1.988091710">
  <ele>1088.000000</ele>
<time>1989-12-30T23:59:59Z</time>
</trkpt>
<trkpt lat="42.955757250" lon="-1.989231150">
  <ele>1081.000000</ele>
<time>1989-12-30T23:59:59Z</time>
</trkpt>
<trkpt lat="42.955970820" lon="-1.997528390">
  <ele>1040.000000</ele>
<time>1989-12-30T23:59:59Z</time>
</trkpt>
<trkpt lat="42.956466690" lon="-2.001500740">
  <ele>1025.000000</ele>
<time>1989-12-30T23:59:59Z</time>
</trkpt>
<trkpt lat="42.957084770" lon="-2.002184540">
  <ele>1027.000000</ele>
<time>1989-12-30T23:59:59Z</time>
</trkpt>
<trkpt lat="42.956672720" lon="-2.005363130">
  <ele>1047.000000</ele>
<time>1989-12-30T23:59:59Z</time>
</trkpt>
<trkpt lat="42.957130540" lon="-2.008161000">
  <ele>1062.000000</ele>
<time>1989-12-30T23:59:59Z</time>
</trkpt>
<trkpt lat="42.956771960" lon="-2.009923550">
  <ele>1062.000000</ele>
<time>1989-12-30T23:59:59Z</time>
</trkpt>
<trkpt lat="42.957245040" lon="-2.012308040">
  <ele>1067.000000</ele>
<time>1989-12-30T23:59:59Z</time>
</trkpt>
<trkpt lat="42.958053720" lon="-2.013895900">
  <ele>1074.000000</ele>
<time>1989-12-30T23:59:59Z</time>
</trkpt>
<trkpt lat="42.959133310" lon="-2.014183230">
  <ele>1080.000000</ele>
<time>1989-12-30T23:59:59Z</time>
</trkpt>
<trkpt lat="42.959640580" lon="-2.014609540">
  <ele>1085.000000</ele>
<time>1989-12-30T23:59:59Z</time>
</trkpt>
<trkpt lat="42.961887440" lon="-2.018161960">
  <ele>1113.000000</ele>
<time>1989-12-30T23:59:59Z</time>
</trkpt>
<trkpt lat="42.962330000" lon="-2.019242380">
  <ele>1112.000000</ele>
<time>1989-12-30T23:59:59Z</time>
</trkpt>
<trkpt lat="42.966114100" lon="-2.023111970">
  <ele>1132.000000</ele>
<time>1989-12-30T23:59:59Z</time>
</trkpt>
<trkpt lat="42.966510900" lon="-2.024725660">
  <ele>1138.000000</ele>
<time>1989-12-30T23:59:59Z</time>
</trkpt>
<trkpt lat="42.966842820" lon="-2.025025730">
  <ele>1144.000000</ele>
<time>1989-12-30T23:59:59Z</time>
</trkpt>
<trkpt lat="42.967788800" lon="-2.025088760">
  <ele>1149.000000</ele>
<time>1989-12-30T23:59:59Z</time>
</trkpt>
<trkpt lat="42.968490700" lon="-2.023861320">
  <ele>1149.000000</ele>
<time>1989-12-30T23:59:59Z</time>
</trkpt>
<trkpt lat="42.969230660" lon="-2.023189920">
  <ele>1150.000000</ele>
<time>1989-12-30T23:59:59Z</time>
</trkpt>
<trkpt lat="42.969680930" lon="-2.023039720">
  <ele>1151.000000</ele>
<time>1989-12-30T23:59:59Z</time>
</trkpt>
<trkpt lat="42.970630770" lon="-2.023494360">
  <ele>1151.000000</ele>
<time>1989-12-30T23:59:59Z</time>
</trkpt>
<trkpt lat="42.971176260" lon="-2.025530990">
  <ele>1161.000000</ele>
<time>1989-12-30T23:59:59Z</time>
</trkpt>
<trkpt lat="42.970928330" lon="-2.026404220">
  <ele>1169.000000</ele>
<time>1989-12-30T23:59:59Z</time>
</trkpt>
<trkpt lat="42.971141900" lon="-2.027596120">
  <ele>1181.000000</ele>
<time>1989-12-30T23:59:59Z</time>
</trkpt>
<trkpt lat="42.971801890" lon="-2.029485570">
  <ele>1198.000000</ele>
<time>1989-12-30T23:59:59Z</time>
</trkpt>
<trkpt lat="42.971878160" lon="-2.031774670">
  <ele>1209.000000</ele>
<time>1989-12-30T23:59:59Z</time>
</trkpt>
<trkpt lat="42.973159920" lon="-2.032182870">
  <ele>1213.000000</ele>
<time>1989-12-30T23:59:59Z</time>
</trkpt>
<trkpt lat="42.973651940" lon="-2.032051440">
  <ele>1208.000000</ele>
<time>1989-12-30T23:59:59Z</time>
</trkpt>
<trkpt lat="42.974327190" lon="-2.032626940">
  <ele>1210.000000</ele>
<time>1989-12-30T23:59:59Z</time>
</trkpt>
<trkpt lat="42.975189350" lon="-2.036944120">
  <ele>1221.000000</ele>
<time>1989-12-30T23:59:59Z</time>
</trkpt>
<trkpt lat="42.975902650" lon="-2.038087250">
  <ele>1217.000000</ele>
<time>1989-12-30T23:59:59Z</time>
</trkpt>
<trkpt lat="42.976875450" lon="-2.038853020">
  <ele>1215.000000</ele>
<time>1989-12-30T23:59:59Z</time>
</trkpt>
<trkpt lat="42.977485660" lon="-2.038511370">
  <ele>1218.000000</ele>
<time>1989-12-30T23:59:59Z</time>
</trkpt>
<trkpt lat="42.978649230" lon="-2.039113860">
  <ele>1230.000000</ele>
<time>1989-12-30T23:59:59Z</time>
</trkpt>
<trkpt lat="42.979179470" lon="-2.040543980">
  <ele>1232.000000</ele>
<time>1989-12-30T23:59:59Z</time>
</trkpt>
<trkpt lat="42.978962050" lon="-2.041522490">
  <ele>1231.000000</ele>
<time>1989-12-30T23:59:59Z</time>
</trkpt>
<trkpt lat="42.979145110" lon="-2.042395550">
  <ele>1226.000000</ele>
<time>1989-12-30T23:59:59Z</time>
</trkpt>
<trkpt lat="42.981674260" lon="-2.040019950">
  <ele>1200.000000</ele>
<time>1989-12-30T23:59:59Z</time>
</trkpt>
<trkpt lat="42.983512920" lon="-2.041478730">
  <ele>1201.000000</ele>
<time>1989-12-30T23:59:59Z</time>
</trkpt>
<trkpt lat="42.983608300" lon="-2.042094800">
  <ele>1203.000000</ele>
<time>1989-12-30T23:59:59Z</time>
</trkpt>
<trkpt lat="42.983947770" lon="-2.042403590">
  <ele>1205.000000</ele>
<time>1989-12-30T23:59:59Z</time>
</trkpt>
<trkpt lat="42.985340170" lon="-2.042128160">
  <ele>1210.000000</ele>
<time>1989-12-30T23:59:59Z</time>
</trkpt>
<trkpt lat="42.990100920" lon="-2.041896490">
  <ele>1177.000000</ele>
<time>1989-12-30T23:59:59Z</time>
</trkpt>
<trkpt lat="42.990497720" lon="-2.042584640">
  <ele>1176.000000</ele>
<time>1989-12-30T23:59:59Z</time>
</trkpt>
<trkpt lat="42.991462820" lon="-2.042866440">
  <ele>1173.000000</ele>
<time>1989-12-30T23:59:59Z</time>
</trkpt>
<trkpt lat="42.992710210" lon="-2.043689710">
  <ele>1172.000000</ele>
<time>1989-12-30T23:59:59Z</time>
</trkpt>
<trkpt lat="42.993255700" lon="-2.044632510">
  <ele>1173.000000</ele>
<time>1989-12-30T23:59:59Z</time>
</trkpt>
<trkpt lat="42.996193060" lon="-2.045309430">
  <ele>1163.000000</ele>
<time>1989-12-30T23:59:59Z</time>
</trkpt>
<trkpt lat="42.997860050" lon="-2.046911880">
  <ele>1149.000000</ele>
<time>1989-12-30T23:59:59Z</time>
</trkpt>
<trkpt lat="42.999748330" lon="-2.047629540">
  <ele>1138.000000</ele>
<time>1989-12-30T23:59:59Z</time>
</trkpt>
<trkpt lat="43.002754240" lon="-2.050636130">
  <ele>1108.000000</ele>
<time>1989-12-30T23:59:59Z</time>
</trkpt>
<trkpt lat="43.004398440" lon="-2.051365360">
  <ele>1085.000000</ele>
<time>1989-12-30T23:59:59Z</time>
</trkpt>
<trkpt lat="43.005428410" lon="-2.051541880">
  <ele>1064.000000</ele>
<time>1989-12-30T23:59:59Z</time>
</trkpt>
<trkpt lat="43.006870430" lon="-2.051112390">
  <ele>1046.000000</ele>
<time>1989-12-30T23:59:59Z</time>
</trkpt>
<trkpt lat="43.007293720" lon="-2.050632950">
  <ele>1038.000000</ele>
<time>1989-12-30T23:59:59Z</time>
</trkpt>
<trkpt lat="43.007968960" lon="-2.051232420">
  <ele>1026.000000</ele>
<time>1989-12-30T23:59:59Z</time>
</trkpt>
<trkpt lat="43.010017500" lon="-2.051319260">
  <ele>987.000000</ele>
<time>1989-12-30T23:59:59Z</time>
</trkpt>
<trkpt lat="43.011840900" lon="-2.051754610">
  <ele>971.000000</ele>
<time>1989-12-30T23:59:59Z</time>
</trkpt>
<trkpt lat="43.013103550" lon="-2.050944750">
  <ele>962.000000</ele>
<time>1989-12-30T23:59:59Z</time>
</trkpt>
<trkpt lat="43.014053390" lon="-2.050838140">
  <ele>953.000000</ele>
<time>1989-12-30T23:59:59Z</time>
</trkpt>
<trkpt lat="43.014865930" lon="-2.050159200">
  <ele>932.000000</ele>
<time>1989-12-30T23:59:59Z</time>
</trkpt>
<trkpt lat="43.016292690" lon="-2.049917130">
  <ele>924.000000</ele>
<time>1989-12-30T23:59:59Z</time>
</trkpt>
<trkpt lat="43.015731950" lon="-2.049571960">
  <ele>920.000000</ele>
<time>1989-12-30T23:59:59Z</time>
</trkpt>
<trkpt lat="43.015739490" lon="-2.049271050">
  <ele>918.000000</ele>
<time>1989-12-30T23:59:59Z</time>
</trkpt>
<trkpt lat="43.016258330" lon="-2.049065030">
  <ele>918.000000</ele>
<time>1989-12-30T23:59:59Z</time>
</trkpt>
<trkpt lat="43.019340520" lon="-2.048960760">
  <ele>899.000000</ele>
<time>1989-12-30T23:59:59Z</time>
</trkpt>
<trkpt lat="43.019729780" lon="-2.049192600">
  <ele>895.000000</ele>
<time>1989-12-30T23:59:59Z</time>
</trkpt>
<trkpt lat="43.021560720" lon="-2.051038630">
  <ele>853.000000</ele>
<time>1989-12-30T23:59:59Z</time>
</trkpt>
<trkpt lat="43.021545470" lon="-2.051640120">
  <ele>855.000000</ele>
<time>1989-12-30T23:59:59Z</time>
</trkpt>
<trkpt lat="43.022300840" lon="-2.051879500">
  <ele>852.000000</ele>
<time>1989-12-30T23:59:59Z</time>
</trkpt>
<trkpt lat="43.022358010" lon="-2.052189970">
  <ele>844.000000</ele>
<time>1989-12-30T23:59:59Z</time>
</trkpt>
<trkpt lat="43.023628370" lon="-2.052477970">
  <ele>836.000000</ele>
<time>1989-12-30T23:59:59Z</time>
</trkpt>
<trkpt lat="43.024353070" lon="-2.053813880">
  <ele>832.000000</ele>
<time>1989-12-30T23:59:59Z</time>
</trkpt>
<trkpt lat="43.024478960" lon="-2.055252550">
  <ele>833.000000</ele>
<time>1989-12-30T23:59:59Z</time>
</trkpt>
<trkpt lat="43.025207520" lon="-2.055068480">
  <ele>827.000000</ele>
<time>1989-12-30T23:59:59Z</time>
</trkpt>
<trkpt lat="43.025146500" lon="-2.055305690">
  <ele>817.000000</ele>
<time>1989-12-30T23:59:59Z</time>
</trkpt>
<trkpt lat="43.025722670" lon="-2.055226900">
  <ele>803.000000</ele>
<time>1989-12-30T23:59:59Z</time>
</trkpt>
<trkpt lat="43.025287650" lon="-2.055527140">
  <ele>805.000000</ele>
<time>1989-12-30T23:59:59Z</time>
</trkpt>
<trkpt lat="43.026229940" lon="-2.055522610">
  <ele>790.000000</ele>
<time>1989-12-30T23:59:59Z</time>
</trkpt>
<trkpt lat="43.026474030" lon="-2.056285530">
  <ele>775.000000</ele>
<time>1989-12-30T23:59:59Z</time>
</trkpt>
<trkpt lat="43.026313930" lon="-2.056704130">
  <ele>768.000000</ele>
<time>1989-12-30T23:59:59Z</time>
</trkpt>
<trkpt lat="43.027130160" lon="-2.057375520">
  <ele>748.000000</ele>
<time>1989-12-30T23:59:59Z</time>
</trkpt>
<trkpt lat="43.027011980" lon="-2.057965940">
  <ele>740.000000</ele>
<time>1989-12-30T23:59:59Z</time>
</trkpt>
<trkpt lat="43.027423860" lon="-2.058762890">
  <ele>723.000000</ele>
<time>1989-12-30T23:59:59Z</time>
</trkpt>
<trkpt lat="43.027156980" lon="-2.061295400">
  <ele>702.000000</ele>
<time>1989-12-30T23:59:59Z</time>
</trkpt>
<trkpt lat="43.027633750" lon="-2.061333620">
  <ele>701.000000</ele>
<time>1989-12-30T23:59:59Z</time>
</trkpt>
<trkpt lat="43.027732990" lon="-2.061782220">
  <ele>693.000000</ele>
<time>1989-12-30T23:59:59Z</time>
</trkpt>
<trkpt lat="43.027736670" lon="-2.061325240">
  <ele>688.000000</ele>
<time>1989-12-30T23:59:59Z</time>
</trkpt>
<trkpt lat="43.029071910" lon="-2.062016910">
  <ele>642.000000</ele>
<time>1989-12-30T23:59:59Z</time>
</trkpt>
<trkpt lat="43.029934070" lon="-2.061631850">
  <ele>615.000000</ele>
<time>1989-12-30T23:59:59Z</time>
</trkpt>
<trkpt lat="43.031368390" lon="-2.062887790">
  <ele>603.000000</ele>
<time>1989-12-30T23:59:59Z</time>
</trkpt>
<trkpt lat="43.033496890" lon="-2.063256930">
  <ele>563.000000</ele>
<time>1989-12-30T23:59:59Z</time>
</trkpt>
<trkpt lat="43.034565080" lon="-2.064350940">
  <ele>540.000000</ele>
<time>1989-12-30T23:59:59Z</time>
</trkpt>
<trkpt lat="43.034336250" lon="-2.064777240">
  <ele>526.000000</ele>
<time>1989-12-30T23:59:59Z</time>
</trkpt>
<trkpt lat="43.034717630" lon="-2.064983940">
  <ele>515.000000</ele>
<time>1989-12-30T23:59:59Z</time>
</trkpt>
<trkpt lat="43.035156340" lon="-2.065939980">
  <ele>495.000000</ele>
<time>1989-12-30T23:59:59Z</time>
</trkpt>
<trkpt lat="43.035919260" lon="-2.066562750">
  <ele>482.000000</ele>
<time>1989-12-30T23:59:59Z</time>
</trkpt>
<trkpt lat="43.037227670" lon="-2.066929040">
  <ele>448.000000</ele>
<time>1989-12-30T23:59:59Z</time>
</trkpt>
<trkpt lat="43.037593960" lon="-2.067604290">
  <ele>434.000000</ele>
<time>1989-12-30T23:59:59Z</time>
</trkpt>
<trkpt lat="43.037189620" lon="-2.067607470">
  <ele>431.000000</ele>
<time>1989-12-30T23:59:59Z</time>
</trkpt>
<trkpt lat="43.037559590" lon="-2.067591050">
  <ele>434.000000</ele>
<time>1989-12-30T23:59:59Z</time>
</trkpt>
<trkpt lat="43.037227670" lon="-2.067373620">
  <ele>434.000000</ele>
<time>1989-12-30T23:59:59Z</time>
</trkpt>
<trkpt lat="43.037181910" lon="-2.067987170">
  <ele>429.000000</ele>
<time>1989-12-30T23:59:59Z</time>
</trkpt>
<trkpt lat="43.037677780" lon="-2.068916390">
  <ele>414.000000</ele>
<time>1989-12-30T23:59:59Z</time>
</trkpt>
<trkpt lat="43.038341630" lon="-2.069569680">
  <ele>407.000000</ele>
<time>1989-12-30T23:59:59Z</time>
</trkpt>
<trkpt lat="43.039291460" lon="-2.071262820">
  <ele>392.000000</ele>
<time>1989-12-30T23:59:59Z</time>
</trkpt>
<trkpt lat="43.040226050" lon="-2.071785350">
  <ele>383.000000</ele>
<time>1989-12-30T23:59:59Z</time>
</trkpt>
<trkpt lat="43.040691410" lon="-2.074744160">
  <ele>357.000000</ele>
<time>1989-12-30T23:59:59Z</time>
</trkpt>
<trkpt lat="43.040779250" lon="-2.074072940">
  <ele>352.000000</ele>
<time>1989-12-30T23:59:59Z</time>
</trkpt>
<trkpt lat="43.041305640" lon="-2.073281180">
  <ele>340.000000</ele>
<time>1989-12-30T23:59:59Z</time>
</trkpt>
<trkpt lat="43.041576540" lon="-2.075244060">
  <ele>319.000000</ele>
<time>1989-12-30T23:59:59Z</time>
</trkpt>
<trkpt lat="43.042263180" lon="-2.076446690">
  <ele>307.000000</ele>
<time>1989-12-30T23:59:59Z</time>
</trkpt>
<trkpt lat="43.042537770" lon="-2.075956020">
  <ele>300.000000</ele>
<time>1989-12-30T23:59:59Z</time>
</trkpt>
<trkpt lat="43.042549170" lon="-2.076659430">
  <ele>297.000000</ele>
<time>1989-12-30T23:59:59Z</time>
</trkpt>
<trkpt lat="43.041984570" lon="-2.077443470">
  <ele>298.000000</ele>
<time>1989-12-30T23:59:59Z</time>
</trkpt>
<trkpt lat="43.041744340" lon="-2.078972330">
  <ele>286.000000</ele>
<time>1989-12-30T23:59:59Z</time>
</trkpt>
<trkpt lat="43.041607050" lon="-2.080563050">
  <ele>264.000000</ele>
<time>1989-12-30T23:59:59Z</time>
</trkpt>
<trkpt lat="43.041809220" lon="-2.082354260">
  <ele>250.000000</ele>
<time>1989-12-30T23:59:59Z</time>
</trkpt>
<trkpt lat="43.042194450" lon="-2.082203380">
  <ele>243.000000</ele>
<time>1989-12-30T23:59:59Z</time>
</trkpt>
<trkpt lat="43.044048360" lon="-2.079802640">
  <ele>221.000000</ele>
<time>1989-12-30T23:59:59Z</time>
</trkpt>
<trkpt lat="43.044429910" lon="-2.082787440">
  <ele>201.000000</ele>
<time>1989-12-30T23:59:59Z</time>
</trkpt>
<trkpt lat="43.045368340" lon="-2.085102180">
  <ele>188.000000</ele>
<time>1989-12-30T23:59:59Z</time>
</trkpt>
<trkpt lat="43.046318180" lon="-2.085914560">
  <ele>180.000000</ele>
<time>1989-12-30T23:59:59Z</time>
</trkpt>
<trkpt lat="43.048416170" lon="-2.086878470">
  <ele>175.000000</ele>
<time>1989-12-30T23:59:59Z</time>
</trkpt>
<trkpt lat="43.048988490" lon="-2.088108270">
  <ele>171.000000</ele>
<time>1989-12-30T23:59:59Z</time>
</trkpt>
<trkpt lat="43.048839620" lon="-2.087673750">
  <ele>167.000000</ele>
<time>1989-12-30T23:59:59Z</time>
</trkpt>
<trkpt lat="43.049095270" lon="-2.087651120">
  <ele>165.000000</ele>
<time>1989-12-30T23:59:59Z</time>
</trkpt>
<trkpt lat="43.051468020" lon="-2.089141250">
  <ele>156.000000</ele>
<time>1989-12-30T23:59:59Z</time>
</trkpt>
<trkpt lat="43.052887080" lon="-2.089075040">
  <ele>155.000000</ele>
<time>1989-12-30T23:59:59Z</time>
</trkpt>
<trkpt lat="43.053260910" lon="-2.088368780">
  <ele>154.000000</ele>
<time>1989-12-30T23:59:59Z</time>
</trkpt>
<trkpt lat="43.053825520" lon="-2.088765240">
  <ele>149.000000</ele>
<time>1989-12-30T23:59:59Z</time>
</trkpt>
<trkpt lat="43.057735510" lon="-2.087862010">
  <ele>141.000000</ele>
<time>1989-12-30T23:59:59Z</time>
</trkpt>
<trkpt lat="43.062854840" lon="-2.087435370">
  <ele>131.000000</ele>
<time>1989-12-30T23:59:59Z</time>
</trkpt>
<trkpt lat="43.067295230" lon="-2.085003950">
  <ele>121.000000</ele>
<time>1989-12-30T23:59:59Z</time>
</trkpt>
<trkpt lat="43.069438990" lon="-2.084197610">
  <ele>117.000000</ele>
<time>1989-12-30T23:59:59Z</time>
</trkpt>
<trkpt lat="43.070774230" lon="-2.084575130">
  <ele>115.000000</ele>
<time>1989-12-30T23:59:59Z</time>
</trkpt>
<trkpt lat="43.073627590" lon="-2.086888530">
  <ele>112.000000</ele>
<time>1989-12-30T23:59:59Z</time>
</trkpt>
<trkpt lat="43.074558320" lon="-2.087089700">
  <ele>112.000000</ele>
<time>1989-12-30T23:59:59Z</time>
</trkpt>
<trkpt lat="43.075672280" lon="-2.086764650">
  <ele>109.000000</ele>
<time>1989-12-30T23:59:59Z</time>
</trkpt>
<trkpt lat="43.077121840" lon="-2.087823620">
  <ele>106.000000</ele>
<time>1989-12-30T23:59:59Z</time>
</trkpt>
<trkpt lat="43.078571410" lon="-2.087865700">
  <ele>105.000000</ele>
<time>1989-12-30T23:59:59Z</time>
</trkpt>
<trkpt lat="43.083618320" lon="-2.089715410">
  <ele>102.000000</ele>
<time>1989-12-30T23:59:59Z</time>
</trkpt>
<trkpt lat="43.083969190" lon="-2.089648860">
  <ele>103.000000</ele>
<time>1989-12-30T23:59:59Z</time>
</trkpt>
<trkpt lat="43.084880970" lon="-2.088415380">
  <ele>101.000000</ele>
<time>1989-12-30T23:59:59Z</time>
</trkpt>
<trkpt lat="43.086486940" lon="-2.088512280">
  <ele>95.000000</ele>
<time>1989-12-30T23:59:59Z</time>
</trkpt>
<trkpt lat="43.087581790" lon="-2.087851450">
  <ele>93.000000</ele>
<time>1989-12-30T23:59:59Z</time>
</trkpt>
<trkpt lat="43.089736940" lon="-2.085965850">
  <ele>92.000000</ele>
<time>1989-12-30T23:59:59Z</time>
</trkpt>
<trkpt lat="43.091156170" lon="-2.086832880">
  <ele>92.000000</ele>
<time>1989-12-30T23:59:59Z</time>
</trkpt>
<trkpt lat="43.091858070" lon="-2.087615240">
  <ele>91.000000</ele>
<time>1989-12-30T23:59:59Z</time>
</trkpt>
<trkpt lat="43.092464580" lon="-2.088835150">
  <ele>90.000000</ele>
<time>1989-12-30T23:59:59Z</time>
</trkpt>
<trkpt lat="43.093868380" lon="-2.090601880">
  <ele>86.000000</ele>
<time>1989-12-30T23:59:59Z</time>
</trkpt>
<trkpt lat="43.095382820" lon="-2.091083840">
  <ele>82.000000</ele>
<time>1989-12-30T23:59:59Z</time>
</trkpt>
<trkpt lat="43.096565340" lon="-2.091882810">
  <ele>83.000000</ele>
<time>1989-12-30T23:59:59Z</time>
</trkpt>
<trkpt lat="43.097152750" lon="-2.092381860">
  <ele>83.000000</ele>
<time>1989-12-30T23:59:59Z</time>
</trkpt>
<trkpt lat="43.098384890" lon="-2.094549260">
  <ele>87.000000</ele>
<time>1989-12-30T23:59:59Z</time>
</trkpt>
<trkpt lat="43.099304210" lon="-2.094887720">
  <ele>89.000000</ele>
<time>1989-12-30T23:59:59Z</time>
</trkpt>
<trkpt lat="43.100425880" lon="-2.095825150">
  <ele>82.000000</ele>
<time>1989-12-30T23:59:59Z</time>
</trkpt>
<trkpt lat="43.100967520" lon="-2.095873430">
  <ele>80.000000</ele>
<time>1989-12-30T23:59:59Z</time>
</trkpt>
<trkpt lat="43.105178920" lon="-2.093695140">
  <ele>77.000000</ele>
<time>1989-12-30T23:59:59Z</time>
</trkpt>
<trkpt lat="43.106212750" lon="-2.094166370">
  <ele>79.000000</ele>
<time>1989-12-30T23:59:59Z</time>
</trkpt>
<trkpt lat="43.106426320" lon="-2.094566190">
  <ele>80.000000</ele>
<time>1989-12-30T23:59:59Z</time>
</trkpt>
<trkpt lat="43.108310740" lon="-2.095428690">
  <ele>73.000000</ele>
<time>1989-12-30T23:59:59Z</time>
</trkpt>
<trkpt lat="43.108833430" lon="-2.095427180">
  <ele>73.000000</ele>
<time>1989-12-30T23:59:59Z</time>
</trkpt>
<trkpt lat="43.110744510" lon="-2.094053720">
  <ele>72.000000</ele>
<time>1989-12-30T23:59:59Z</time>
</trkpt>
<trkpt lat="43.111480770" lon="-2.091422640">
  <ele>70.000000</ele>
<time>1989-12-30T23:59:59Z</time>
</trkpt>
<trkpt lat="43.111572300" lon="-2.090105510">
  <ele>72.000000</ele>
<time>1989-12-30T23:59:59Z</time>
</trkpt>
<trkpt lat="43.112480230" lon="-2.089263290">
  <ele>71.000000</ele>
<time>1989-12-30T23:59:59Z</time>
</trkpt>
<trkpt lat="43.113304170" lon="-2.089302860">
  <ele>70.000000</ele>
<time>1989-12-30T23:59:59Z</time>
</trkpt>
<trkpt lat="43.114318880" lon="-2.090284210">
  <ele>71.000000</ele>
<time>1989-12-30T23:59:59Z</time>
</trkpt>
<trkpt lat="43.116760370" lon="-2.091321550">
  <ele>71.000000</ele>
<time>1989-12-30T23:59:59Z</time>
</trkpt>
<trkpt lat="43.118263410" lon="-2.090091590">
  <ele>67.000000</ele>
<time>1989-12-30T23:59:59Z</time>
</trkpt>
<trkpt lat="43.120517810" lon="-2.089569230">
  <ele>70.000000</ele>
<time>1989-12-30T23:59:59Z</time>
</trkpt>
<trkpt lat="43.121841480" lon="-2.088958190">
  <ele>72.000000</ele>
<time>1989-12-30T23:59:59Z</time>
</trkpt>
<trkpt lat="43.122947720" lon="-2.087961420">
  <ele>69.000000</ele>
<time>1989-12-30T23:59:59Z</time>
</trkpt>
<trkpt lat="43.123745010" lon="-2.088480090">
  <ele>70.000000</ele>
<time>1989-12-30T23:59:59Z</time>
</trkpt>
<trkpt lat="43.124481270" lon="-2.087492370">
  <ele>68.000000</ele>
<time>1989-12-30T23:59:59Z</time>
</trkpt>
<trkpt lat="43.126220850" lon="-2.086469770">
  <ele>67.000000</ele>
<time>1989-12-30T23:59:59Z</time>
</trkpt>
<trkpt lat="43.126876990" lon="-2.086419480">
  <ele>71.000000</ele>
<time>1989-12-30T23:59:59Z</time>
</trkpt>
<trkpt lat="43.128074760" lon="-2.086900940">
  <ele>68.000000</ele>
<time>1989-12-30T23:59:59Z</time>
</trkpt>
<trkpt lat="43.129074220" lon="-2.086800190">
  <ele>69.000000</ele>
<time>1989-12-30T23:59:59Z</time>
</trkpt>
<trkpt lat="43.129104730" lon="-2.085963000">
  <ele>67.000000</ele>
<time>1989-12-30T23:59:59Z</time>
</trkpt>
<trkpt lat="43.129859940" lon="-2.085409630">
  <ele>67.000000</ele>
<time>1989-12-30T23:59:59Z</time>
</trkpt>
<trkpt lat="43.131473620" lon="-2.082807380">
  <ele>68.000000</ele>
<time>1989-12-30T23:59:59Z</time>
</trkpt>
<trkpt lat="43.131588120" lon="-2.079904060">
  <ele>67.000000</ele>
<time>1989-12-30T23:59:59Z</time>
</trkpt>
<trkpt lat="43.131897080" lon="-2.079339120">
  <ele>66.000000</ele>
<time>1989-12-30T23:59:59Z</time>
</trkpt>
</trkseg>
</trk>
</gpx>
